This demonstration page uses our WeatherBlox Daily Observations layout. Learn more.

Left ArrowRight Arrow

36.17497, -115.13722

Hourly Observations for June 2, 2019

Temp ( °F °C ) Dew Point ( °F °C ) Humidity (%) Winds ( mph kmh ) Pressure ( in mb ) Visibility ( mi km ) Precip ( " mm )
12:21 am 00:21 Clear with Nearby Thunderstorms 75 23.9 40 4.4 28 28 N 15 24 29.66 1005 10 16 0.00 0.00
12:36 am 00:36 Clear 74 23.3 40 4.4 29 29 NNW 15 24 29.67 1005 10 16 0.00 0.00
12:53 am 00:53 Clear 74 23.3 40 4.4 29 29 NNW 13 20 29.75 1007 10 16 0.00 0.00
1:53 am 01:53 Clear 72 22.2 40 4.4 31 31 NNW 13 20 29.75 1007 10 16 0.00 0.00
2:53 am 02:53 Clear 71 21.7 40 4.4 32 32 NNW 9 15 29.75 1007 10 16 0.00 0.00
3:53 am 03:53 Clear 70 21.1 41 5 35 35 N 13 20 29.75 1008 10 16 0.00 0.00
4:53 am 04:53 Clear 70 21.1 41 5 35 35 N 12 19 29.76 1008 10 16 0.00 0.00
5:53 am 05:53 Sunny 70 21.1 41 5 35 35 N 12 19 29.78 1008 10 16 0.00 0.00
6:53 am 06:53 Sunny 72 22.2 41 5 33 33 N 8 13 29.80 1009 10 16 0.00 0.00
7:53 am 07:53 Sunny 75 23.9 42 5.6 31 31 N 10 17 29.81 1009 10 16 0.00 0.00
8:53 am 08:53 Sunny 77 25 41 5 28 28 Calm 29.83 1010 10 16 0.00 0.00
9:53 am 09:53 Sunny 79 26.1 37 2.8 22 22 Calm 29.83 1010 10 16 0.00 0.00
10:53 am 10:53 Sunny 81 27.2 36 2.2 20 20 VRB 5 7 29.82 1010 10 16 0.00 0.00
11:53 am 11:53 Sunny 84 28.9 34 1.1 17 17 S 12 19 29.81 1010 10 16 0.00 0.00
12:53 pm 12:53 Sunny 85 29.4 32 0 15 15 S 7 11 29.80 1009 10 16 0.00 0.00
1:53 pm 13:53 Sunny 86 30 29 -1.7 13 13 SSE 6 9 29.78 1008 10 16 0.00 0.00
2:53 pm 14:53 Sunny 88 31.1 25 -3.9 10 10 NNW 12 19 29.76 1008 10 16 0.00 0.00
3:53 pm 15:53 Sunny 88 31.1 27 -2.8 11 11 SW 8 13 29.74 1007 10 16 0.00 0.00
4:53 pm 16:53 Sunny 89 31.7 24 -4.4 9 9 SE 6 9 29.73 1007 10 16 0.00 0.00
5:53 pm 17:53 Sunny 89 31.7 24 -4.4 9 9 SSW 5 7 29.72 1007 10 16 0.00 0.00
6:53 pm 18:53 Sunny 87 30.6 28 -2.2 12 12 SE 9 15 29.72 1007 10 16 0.00 0.00
7:53 pm 19:53 Sunny 86 30 27 -2.8 12 12 S 9 15 29.74 1007 10 16 0.00 0.00
8:53 pm 20:53 Clear 83 28.3 33 0.6 17 17 N 7 11 29.76 1008 10 16 0.00 0.00
9:53 pm 21:53 Clear 82 27.8 32 0 16 16 NE 9 15 29.77 1008 10 16 0.00 0.00
10:53 pm 22:53 Clear 79 26.1 35 1.7 20 20 N 5 7 29.78 1009 10 16 0.00 0.00
11:53 pm 23:53 Clear 76 24.4 36 2.2 23 23 N 6 9 29.78 1009 10 16 0.00 0.00

Powered by AerisWeather